Satellite: NOAA-17
Catalog number: 27453
Epoch time:      11362.90646555
Element set:    0545
Inclination:      098.3558 deg
RA of node:       033.4412 deg
Eccentricity:    0.0010916
Arg of perigee:   301.5110 deg
Mean anomaly:     058.4995 deg
Mean motion:   14.24376055 rev/day
Decay rate:       3.30e-06 rev/day^2
Epoch rev:           49437
Checksum:              299

Satellite: NOAA-18
Catalog number: 28654
Epoch time:      11362.96206280
Element set:    0020
Inclination:      099.0238 deg
RA of node:       314.8439 deg
Eccentricity:    0.0013556
Arg of perigee:   277.6555 deg
Mean anomaly:     082.3081 deg
Mean motion:   14.11580877 rev/day
Decay rate:       -6.1e-07 rev/day^2
Epoch rev:           34040
Checksum:              296

Satellite: NOAA-19
Catalog number: 33591
Epoch time:      11362.93166565
Element set:    0209
Inclination:      098.8490 deg
RA of node:       299.9987 deg
Eccentricity:    0.0014429
Arg of perigee:   142.6150 deg
Mean anomaly:     217.6026 deg
Mean motion:   14.11270639 rev/day
Decay rate:       -1.3e-07 rev/day^2
Epoch rev:           14885
Checksum:              326

/EX
SB KEPS @ AMSAT  $ORB11363.M
Orbital Elements  11363.MISC

HR AMSAT ORBITAL ELEMENTS FOR MANNED AND MISCELLANEOUS SATELLITES
FROM WA5QGD FORT WORTH,TX December 29, 2011
Send Subscribe/unsubscribe to KEPS at http://www.amsat.org/mailman/listinfo/kep
BID: ORB11363.M
TO ALL RADIO AMATEURS BT

Satellite: HUBBLE
Catalog number: 20580
Epoch time:      11362.92458795
Element set:     914
Inclination:      028.4692 deg
RA of node:       183.8965 deg
Eccentricity:    0.0003326
Arg of perigee:   036.2633 deg
Mean anomaly:     323.8125 deg
Mean motion:   15.02039929 rev/day
Decay rate:      1.653e-05 rev/day^2
Epoch rev:           98895
Checksum:              325

Satellite: ISS
Catalog number: 25544
Epoch time:      11363.93815972
Element set:     721
Inclination:      051.6440 deg
RA of node:       256.1914 deg
Eccentricity:    0.0024042
Arg of perigee:   220.3253 deg
Mean anomaly:     314.6768 deg
Mean motion:   15.58736096 rev/day
Decay rate:     1.5203e-04 rev/day^2
Epoch rev:           75146
Checksum:              291

Satellite: CO-58
Catalog number: 28895
Epoch time:      11362.67310690
Element set:    0060
Inclination:      097.9386 deg
RA of node:       231.2480 deg
Eccentricity:    0.0017478
Arg of perigee:   333.6500 deg
Mean anomaly:     026.3868 deg
Mean motion:   14.60416076 rev/day
Decay rate:       8.88e-06 rev/day^2
Epoch rev:           32862
Checksum:              328

Satellite: FALCON
Catalog number: 30776
Epoch time:      11363.91478759
Element set:     248
Inclination:      035.4331 deg
RA of node:       235.8253 deg
Eccentricity:    0.0003611
Arg of perigee:   327.8206 deg
Mean anomaly:     032.2291 deg
Mean motion:   15.06276004 rev/day
Decay rate:      4.106e-05 rev/day^2
Epoch rev:           26455
Checksum:              278

Satellite: MAST
Catalog number: 31126
Epoch time:      11362.94664932
Element set:    0351
Inclination:      097.8821 deg
RA of node:       019.0291 deg
Eccentricity:    0.0093190
Arg of perigee:   284.6787 deg
Mean anomaly:     074.4098 deg
Mean motion:   14.53984871 rev/day
Decay rate:       6.68e-06 rev/day^2
Epoch rev:           24938
Checksum:              336

Satellite: CAPE1
Catalog number: 31130
Epoch time:      11362.49111331
Element set:    0357
Inclination:      097.8858 deg
RA of node:       015.1141 deg
Eccentricity:    0.0100715
Arg of perigee:   297.8710 deg
Mean anomaly:     061.2354 deg
Mean motion:   14.52703222 rev/day
Decay rate:       9.64e-06 rev/day^2
Epoch rev:           24884
Checksum:              269

Satellite: COMPASS
Catalog number: 32787
Epoch time:      11362.83375360
Element set:    0185
Inclination:      097.8255 deg
RA of node:       062.8460 deg
Eccentricity:    0.0014374
Arg of perigee:   260.5585 deg
Mean anomaly:     099.3970 deg
Mean motion:   14.83320523 rev/day
Decay rate:      2.332e-05 rev/day^2
Epoch rev:           19840
Checksum:              309

Satellite: AAUSAT2
Catalog number: 32788
Epoch time:      11363.64655216
Element set:     173
Inclination:      097.8262 deg
RA of node:       063.9377 deg
Eccentricity:    0.0013864
Arg of perigee:   257.5345 deg
Mean anomaly:     102.4318 deg
Mean motion:   14.83584149 rev/day
Decay rate:      2.077e-05 rev/day^2
Epoch rev:           19854
Checksum:              329

Satellite: DO-64
Catalog number: 32789
Epoch time:      11362.75986473
Element set:     188
Inclination:      097.8359 deg
RA of node:       064.5152 deg
Eccentricity:    0.0014173
Arg of perigee:   258.8164 deg
Mean anomaly:     101.1433 deg
Mean motion:   14.84609180 rev/day
Decay rate:      4.403e-05 rev/day^2
Epoch rev:           19843
Checksum:              331

Satellite: CO-66
Catalog number: 32791
Epoch time:      11362.83050034
Element set:    0180
Inclination:      097.8263 deg
RA of node:       062.7032 deg
Eccentricity:    0.0014685
Arg of perigee:   260.1391 deg
Mean anomaly:     099.8154 deg
Mean motion:   14.82858782 rev/day
Decay rate:      1.976e-05 rev/day^2
Epoch rev:           19834
Checksum:              326

